GEESAT 5-05

导读

GEESAT 5-05是一颗由中国于2025年9月8日发射的卫星,属于GEESAT 5系列卫星。该卫星的发射进一步充实了中国的卫星星座布局,有望在遥感观测、空间环境监测等相关领域发挥作用,为相关科学研究、行业应用以及社会发展提供数据支撑与服务,助力中国航天事业持续发展。

基本信息
目录编号:
65554
目录名称:
GEESAT 5-05
国际标识:
2025-201E
轨道中心:
EARTH
卫星名称:
GEESAT 5-05
卫星全名:
GEESAT 5-05
卫星状态:
在轨 (已飞行368 天)
发射日期:
2025-09-08 UTC
国别 :
中国 (CN)
星等 :
--
该卫星已列入 空间交会检测服务 Space Conjunction Data Service (SCDS) ,当前飞行风险评估等级: 无高风险
轨道信息
数据来源 国际轨道数据 AOE轨道数据
星历时间 2026-09-10T06:29:28+0800
1天前
查看轨道信息
2026-09-10T12:00:00+0800
1天前
查看轨道信息
半长轴 6993.649km 6993.66km
偏心率 0.0011114 0.0010881
轨道倾角 49.983° 49.982°
近地点辐角 244.849° 246.483°
升交点赤经 5.861° 4.797°
平近点角 115.129° 260.969°
近地点 607.739km 607.913km
远地点 623.285km 623.133km
周期 97.010分钟 97.010分钟
每日圈数 14.843868 14.843831
详细信息
使用方式:
暂无
2D轨道图
3D轨道图
轨道高度分析图
轨道倾角分析图
轨道综合分析图
查看轨道综合分析图
交会数据列表
事件ID 空间交会对象 最接近时刻(TCA) 交会距离 交会风险概率(CRP) 交会风险指数(CRI) 操作
CDM_260912-115504-093006-555424
ASTROSAT (40930)
2026-09-12T
11:55:08+0000
1.056 km
极远距离
1.275037E-5 中风险 0.57
与全量物体交会距离演化趋势
与全量物体交会风险概率演化趋势